NOAA 16 DEB, 41281

Orbit data source: Space-Track

NOAA 16 DEB, 41281 is space debris in SSO originally from a launch on Thu, 21 Sep 2000 UTC launched from the Air Force Western Test Range (AFWTR). Debris objects in space refer to the collection of defunct objects orbiting the Earth. Examples of debris include non-operational satellites, rocket bodies, and fragments generated from explosions, collisions, or faulty payload assembly.

Loading next visibility...
Identifier
41281, 2000-055GH
Orbit
SSO
Country
Flag of USUS
Related business
Manufacturer
Unknown
Mission
Spacecraft
Bus & Motor
Unknown
Mass
Unknown
Launch date (UTC)
2000-09-21 (26 years ago)
Launch vehicle
Unknown
Launch site
Air Force Western Test Range (AFWTR)
Object type
Payload
Rocket body
Debris
Shape & HBR
Unknown shape, 0.1 m
Radar Cross Section
Small (<0.1 m²)

Expand to show TLE details & history
Last TLE update: 2 days ago

TLE from 2 days ago
0 NOAA 16 DEB
1 41281U 00055GH  26171.15249714  .00003686  00000-0  15091-2 0  9997
2 41281  98.8054 238.2312 0031744 199.9433 160.0508 14.27525804539892
Epoch: 2026-06-20T03:39Z
TLE epoch observation values (Epoch: 2026-06-20T03:39:35.752Z)
Latitude
-0.00013°
Longitude
-85.03897°
Altitude
824.366 km
Speed
7.43 km/s
True Right ascension
15h 52m 55s
True Declination
0° 00' 00"
Sunlit
Object was in full shadow at epoch
Visualization orbit readout
Latitude
Unknown
Longitude
Unknown
Altitude
Unknown
Speed
Unknown
Apparent Right ascension
Unknown
Apparent Declination
Unknown
Sunlit
N/A
Visualization observer readout
Local Sidereal Time
21:38:45
Azimuth
Unknown
Elevation
Unknown
Doppler factor
Unknown
Orbital elements
Apogee altitude
819.943 km
Perigee altitude
774.389 km
Semi-major axis
7,175.303 km
Eccentricity
0.00317
Inclination
98.8054°
RAAN
238.2312°
Arg. of periapsis
199.9433°
True anomaly
160.17445°
Mean anomaly
160.0508°
Eccentric anomaly
160.11267°
Mean motion
3.57094 °/min
Orbital period
100.81 mins
BSTAR
0.0015091
Loading maneuver chart data...
Computing Atmospheric mass density...
Loading historical data...
Loading historical data...
Loading historical data...
Loading historical data...
Loading historical data...
Loading historical data...
Loading historical data...

Documentation

Showing up to 5 results
|